Enchantment of the Seas — C6FZ7 — position and weather

sailwx.info

Track history (hours):
 
Tides and Currents Weather Stations Pressure Air Temp Water Temp Dewpoint Dewpoint Depression Visibility Wind Speed Wind Dir Waves Ship Positions

Enchantment of the Seas (Bahamas)

Last reported at 2019-Sep-16 23:22 UTC. Time now 2019-Sep-17 08:48 UTC.
Position N 29°05' W 094°17'.

Type: Passenger vessel. MMSI: 311733000.

Date/timePositionNaut miles runAvg speedWind from/ knotsBaromVisibWave heightAir tempDewpointWater temp
2019-Sep-16 23:22N 29°05' W 094°17'816.5
2019-Sep-16 22:52N 29°09' W 094°26'1116.2
2019-Sep-16 22:10N 29°16' W 094°36'215.5
2019-Sep-16 22:00N 29°18' W 094°38'612.5
2019-Sep-16 21:30N 29°21' W 094°44'4 7.9
2019-Sep-16 21:00N 29°19' W 094°48'0 0.0
2019-Sep-16 20:26N 29°19' W 094°48'0 0.0
2019-Sep-16 19:59N 29°19' W 094°48'0 0.0
2019-Sep-16 19:29N 29°19' W 094°48'0 0.0
2019-Sep-16 18:53N 29°19' W 094°48'0 0.0
2019-Sep-16 18:29N 29°19' W 094°48'0 0.0
2019-Sep-16 17:56N 29°19' W 094°48'0 0.0
2019-Sep-16 17:26N 29°19' W 094°48'0 0.0
2019-Sep-16 16:59N 29°19' W 094°48'0 0.0
2019-Sep-16 16:26N 29°19' W 094°48'0 0.0
2019-Sep-16 15:59N 29°19' W 094°48'0 0.0
2019-Sep-16 15:29N 29°19' W 094°48'0 0.0
2019-Sep-16 14:59N 29°19' W 094°48'0 0.0
2019-Sep-16 14:29N 29°19' W 094°48'0 0.0
2019-Sep-16 13:59N 29°19' W 094°48'0 0.0
2019-Sep-16 13:29N 29°19' W 094°48'0 0.0
2019-Sep-16 12:59N 29°19' W 094°48'0 0.0
2019-Sep-16 12:23N 29°19' W 094°48'0 0.0
2019-Sep-16 11:59N 29°19' W 094°48'1 1.5
2019-Sep-16 11:30N 29°19' W 094°47'2 4.6
2019-Sep-16 11:00N 29°21' W 094°46'714.5
2019-Sep-16 10:30N 29°18' W 094°38'67018.6
2019-Sep-14 22:24N 20°35' W 086°57'614.8
2019-Sep-14 22:00N 20°29' W 086°59'0 0.2
2019-Sep-14 21:29N 20°29' W 086°59'0 0.0
2019-Sep-14 20:59N 20°29' W 086°59'0 0.0
2019-Sep-14 20:29N 20°29' W 086°59'0 0.0
2019-Sep-14 19:59N 20°29' W 086°59'0 0.0
2019-Sep-14 19:29N 20°29' W 086°59'0 0.0
2019-Sep-14 18:59N 20°29' W 086°59'0 0.0
2019-Sep-14 18:29N 20°29' W 086°59'0 0.0
2019-Sep-14 17:59N 20°29' W 086°59'0 0.0
2019-Sep-14 17:29N 20°29' W 086°59'0 0.0
2019-Sep-14 16:59N 20°29' W 086°59'0 0.0
2019-Sep-14 16:29N 20°29' W 086°59'0 0.0
2019-Sep-14 15:59N 20°29' W 086°59'0 0.0
2019-Sep-14 15:29N 20°29' W 086°59'0 0.0
2019-Sep-14 14:56N 20°29' W 086°59'0 0.0
2019-Sep-14 14:29N 20°29' W 086°59'0 0.0
2019-Sep-14 13:59N 20°29' W 086°59'0 0.0
2019-Sep-14 13:29N 20°29' W 086°59'0 0.0
2019-Sep-14 12:59N 20°29' W 086°59'0 0.0
2019-Sep-14 12:29N 20°29' W 086°59'0 0.0
2019-Sep-14 12:00N 20°29' W 086°59'1 2.4
2019-Sep-14 11:31N 20°30' W 086°59'404 8.3
2019-Sep-12 11:00N 26°12' W 090°54'13722.8 090 / 201012.8 28.323.529.0
2019-Sep-12 05:00N 27°54' W 092°36'6921.3 090 / 211015.1 28.724.130.0
2019-Sep-12 01:45N 28°39' W 093°35'520.3
2019-Sep-12 01:29N 28°42' W 093°40'1220.2
2019-Sep-12 00:53N 28°49' W 093°52'820.1
2019-Sep-12 00:30N 28°54' W 093°59'1120.0
2019-Sep-11 23:57N 29°00' W 094°09'919.5
2019-Sep-11 23:29N 29°05' W 094°18'2018.8
2019-Sep-11 22:24N 29°17' W 094°37'512.6
2019-Sep-11 22:00N 29°20' W 094°41'611.1
2019-Sep-11 21:30N 29°19' W 094°47'1 2.0
2019-Sep-11 21:01N 29°19' W 094°48'0 0.0
2019-Sep-11 20:28N 29°19' W 094°48'0 0.0
2019-Sep-11 19:58N 29°19' W 094°48'0 0.0
2019-Sep-11 19:25N 29°19' W 094°48'0 0.0
2019-Sep-11 18:58N 29°19' W 094°48'0 0.0
2019-Sep-11 18:28N 29°19' W 094°48'0 0.0
2019-Sep-11 17:58N 29°19' W 094°48'0 0.0
2019-Sep-11 17:28N 29°19' W 094°48'0 0.0
2019-Sep-11 16:52N 29°19' W 094°48'0 0.0
2019-Sep-11 16:28N 29°19' W 094°48'0 0.0
2019-Sep-11 15:58N 29°19' W 094°48'0 0.0
2019-Sep-11 15:28N 29°19' W 094°48'0 0.0
2019-Sep-11 14:58N 29°19' W 094°48'0 0.0
2019-Sep-11 14:28N 29°19' W 094°48'0 0.0
2019-Sep-11 13:55N 29°19' W 094°48'0 0.0
2019-Sep-11 13:28N 29°19' W 094°48'0 0.0
2019-Sep-11 12:58N 29°19' W 094°48'0 0.0
2019-Sep-11 12:22N 29°19' W 094°48'0 0.0
2019-Sep-11 11:58N 29°19' W 094°48'0 0.4
2019-Sep-11 11:30N 29°19' W 094°48'1 2.8
2019-Sep-11 11:00N 29°20' W 094°47'510.2
2019-Sep-11 10:30N 29°20' W 094°41'714.3
2019-Sep-11 10:00N 29°16' W 094°34'13218.9
2019-Sep-11 03:00N 27°54' W 092°36'36018.9 110 / 171018.4 28.724.830.0
2019-Sep-10 08:00N 23°24' W 088°12'9022.4 090 / 211015.5 29.025.529.0
2019-Sep-10 04:00N 22°18' W 087°06'10218.4 070 / 291016.0 28.425.329.0
2019-Sep-09 22:27N 20°36' W 086°56'817.3
2019-Sep-09 22:00N 20°29' W 086°59'0 0.6
2019-Sep-09 21:29N 20°29' W 086°59'0 0.0
2019-Sep-09 20:59N 20°29' W 086°59'0 0.0
2019-Sep-09 20:29N 20°29' W 086°59'0 0.0
2019-Sep-09 19:59N 20°29' W 086°59'0 0.0
2019-Sep-09 19:29N 20°29' W 086°59'0 0.0
2019-Sep-09 18:59N 20°29' W 086°59'0 0.0
2019-Sep-09 18:29N 20°29' W 086°59'0 0.0
2019-Sep-09 17:59N 20°29' W 086°59'0 0.0
2019-Sep-09 17:29N 20°29' W 086°59'0 0.0
2019-Sep-09 16:59N 20°29' W 086°59'0 0.0
2019-Sep-09 16:29N 20°29' W 086°59'0 0.0
2019-Sep-09 15:59N 20°29' W 086°59'0 0.0
2019-Sep-09 15:29N 20°29' W 086°59'0 0.0
2019-Sep-09 14:59N 20°29' W 086°59'0 0.0
2019-Sep-09 14:29N 20°29' W 086°59'0 0.0
2019-Sep-09 13:59N 20°29' W 086°59'0 0.0
2019-Sep-09 13:29N 20°29' W 086°59'0 0.0
2019-Sep-09 12:59N 20°29' W 086°59'0 0.0
2019-Sep-09 12:29N 20°29' W 086°59'0 0.0
2019-Sep-09 12:00N 20°29' W 086°59'1 2.6
2019-Sep-09 11:31N 20°30' W 086°59'4 7.2
2019-Sep-09 11:00N 20°28' W 087°02'9710.7
2019-Sep-09 02:00N 18°54' W 087°24'98 5.8 090 / 201014.2 29.224.630.0
2019-Sep-08 09:00N 20°24' W 086°42'8421.0 090 / 71012.910.8 28.424.329.0
2019-Sep-08 05:00N 21°48' W 086°48'47520.7 080 / 21014.4 28.524.631.0
2019-Sep-07 06:00N 27°48' W 092°30'4418.0 210 / 51015.810.8 28.524.129.0
2019-Sep-07 03:31N 28°20' W 093°05'019.2
2019-Sep-07 03:30N 28°20' W 093°05'1018.6
2019-Sep-07 02:59N 28°26' W 093°14'918.9
2019-Sep-07 02:30N 28°31' W 093°22'2 3.7
2019-Sep-07 02:00N 28°30' W 093°24'10218.8 220 / 41015.1 29.023.729.0
2019-Sep-07 01:57N 28°37' W 093°32'917.8
2019-Sep-07 01:27N 28°42' W 093°40'818.0
2019-Sep-07 01:00N 28°47' W 093°48'918.4
2019-Sep-07 00:30N 28°52' W 093°56'918.5
2019-Sep-07 00:00N 28°58' W 094°05'  
Track history (hours):
 
Tides and Currents Weather Stations Pressure Air Temp Water Temp Dewpoint Dewpoint Depression Visibility Wind Speed Wind Dir Waves Ship Positions

Enchantment of the Seas (Bahamas)

Last reported at 2019-Sep-16 23:22 UTC. Time now 2019-Sep-17 08:48 UTC.
Position N 29°05' W 094°17'.

Type: Passenger vessel. MMSI: 311733000.

Date/timePositionNaut miles runAvg speedWind from/ knotsBaromVisibWave heightAir tempDewpointWater temp
2019-Sep-16 23:22N 29°05' W 094°17'816.5
2019-Sep-16 22:52N 29°09' W 094°26'1116.2
2019-Sep-16 22:10N 29°16' W 094°36'215.5
2019-Sep-16 22:00N 29°18' W 094°38'612.5
2019-Sep-16 21:30N 29°21' W 094°44'4 7.9
2019-Sep-16 21:00N 29°19' W 094°48'0 0.0
2019-Sep-16 20:26N 29°19' W 094°48'0 0.0
2019-Sep-16 19:59N 29°19' W 094°48'0 0.0
2019-Sep-16 19:29N 29°19' W 094°48'0 0.0
2019-Sep-16 18:53N 29°19' W 094°48'0 0.0
2019-Sep-16 18:29N 29°19' W 094°48'0 0.0
2019-Sep-16 17:56N 29°19' W 094°48'0 0.0
2019-Sep-16 17:26N 29°19' W 094°48'0 0.0
2019-Sep-16 16:59N 29°19' W 094°48'0 0.0
2019-Sep-16 16:26N 29°19' W 094°48'0 0.0
2019-Sep-16 15:59N 29°19' W 094°48'0 0.0
2019-Sep-16 15:29N 29°19' W 094°48'0 0.0
2019-Sep-16 14:59N 29°19' W 094°48'0 0.0
2019-Sep-16 14:29N 29°19' W 094°48'0 0.0
2019-Sep-16 13:59N 29°19' W 094°48'0 0.0
2019-Sep-16 13:29N 29°19' W 094°48'0 0.0
2019-Sep-16 12:59N 29°19' W 094°48'0 0.0
2019-Sep-16 12:23N 29°19' W 094°48'0 0.0
2019-Sep-16 11:59N 29°19' W 094°48'1 1.5
2019-Sep-16 11:30N 29°19' W 094°47'2 4.6
2019-Sep-16 11:00N 29°21' W 094°46'714.5
2019-Sep-16 10:30N 29°18' W 094°38'67018.6
2019-Sep-14 22:24N 20°35' W 086°57'614.8
2019-Sep-14 22:00N 20°29' W 086°59'0 0.2
2019-Sep-14 21:29N 20°29' W 086°59'0 0.0
2019-Sep-14 20:59N 20°29' W 086°59'0 0.0
2019-Sep-14 20:29N 20°29' W 086°59'0 0.0
2019-Sep-14 19:59N 20°29' W 086°59'0 0.0
2019-Sep-14 19:29N 20°29' W 086°59'0 0.0
2019-Sep-14 18:59N 20°29' W 086°59'0 0.0
2019-Sep-14 18:29N 20°29' W 086°59'0 0.0
2019-Sep-14 17:59N 20°29' W 086°59'0 0.0
2019-Sep-14 17:29N 20°29' W 086°59'0 0.0
2019-Sep-14 16:59N 20°29' W 086°59'0 0.0
2019-Sep-14 16:29N 20°29' W 086°59'0 0.0
2019-Sep-14 15:59N 20°29' W 086°59'0 0.0
2019-Sep-14 15:29N 20°29' W 086°59'0 0.0
2019-Sep-14 14:56N 20°29' W 086°59'0 0.0
2019-Sep-14 14:29N 20°29' W 086°59'0 0.0
2019-Sep-14 13:59N 20°29' W 086°59'0 0.0
2019-Sep-14 13:29N 20°29' W 086°59'0 0.0
2019-Sep-14 12:59N 20°29' W 086°59'0 0.0
2019-Sep-14 12:29N 20°29' W 086°59'0 0.0
2019-Sep-14 12:00N 20°29' W 086°59'1 2.4
2019-Sep-14 11:31N 20°30' W 086°59'404 8.3
2019-Sep-12 11:00N 26°12' W 090°54'13722.8 090 / 201012.8 28.323.529.0
2019-Sep-12 05:00N 27°54' W 092°36'6921.3 090 / 211015.1 28.724.130.0
2019-Sep-12 01:45N 28°39' W 093°35'520.3
2019-Sep-12 01:29N 28°42' W 093°40'1220.2
2019-Sep-12 00:53N 28°49' W 093°52'820.1
2019-Sep-12 00:30N 28°54' W 093°59'1120.0
2019-Sep-11 23:57N 29°00' W 094°09'919.5
2019-Sep-11 23:29N 29°05' W 094°18'2018.8
2019-Sep-11 22:24N 29°17' W 094°37'512.6
2019-Sep-11 22:00N 29°20' W 094°41'611.1
2019-Sep-11 21:30N 29°19' W 094°47'1 2.0
2019-Sep-11 21:01N 29°19' W 094°48'0 0.0
2019-Sep-11 20:28N 29°19' W 094°48'0 0.0
2019-Sep-11 19:58N 29°19' W 094°48'0 0.0
2019-Sep-11 19:25N 29°19' W 094°48'0 0.0
2019-Sep-11 18:58N 29°19' W 094°48'0 0.0
2019-Sep-11 18:28N 29°19' W 094°48'0 0.0
2019-Sep-11 17:58N 29°19' W 094°48'0 0.0
2019-Sep-11 17:28N 29°19' W 094°48'0 0.0
2019-Sep-11 16:52N 29°19' W 094°48'0 0.0
2019-Sep-11 16:28N 29°19' W 094°48'0 0.0
2019-Sep-11 15:58N 29°19' W 094°48'0 0.0
2019-Sep-11 15:28N 29°19' W 094°48'0 0.0
2019-Sep-11 14:58N 29°19' W 094°48'0 0.0
2019-Sep-11 14:28N 29°19' W 094°48'0 0.0
2019-Sep-11 13:55N 29°19' W 094°48'0 0.0
2019-Sep-11 13:28N 29°19' W 094°48'0 0.0
2019-Sep-11 12:58N 29°19' W 094°48'0 0.0
2019-Sep-11 12:22N 29°19' W 094°48'0 0.0
2019-Sep-11 11:58N 29°19' W 094°48'0 0.4
2019-Sep-11 11:30N 29°19' W 094°48'1 2.8
2019-Sep-11 11:00N 29°20' W 094°47'510.2
2019-Sep-11 10:30N 29°20' W 094°41'714.3
2019-Sep-11 10:00N 29°16' W 094°34'13218.9
2019-Sep-11 03:00N 27°54' W 092°36'36018.9 110 / 171018.4 28.724.830.0
2019-Sep-10 08:00N 23°24' W 088°12'9022.4 090 / 211015.5 29.025.529.0
2019-Sep-10 04:00N 22°18' W 087°06'10218.4 070 / 291016.0 28.425.329.0
2019-Sep-09 22:27N 20°36' W 086°56'817.3
2019-Sep-09 22:00N 20°29' W 086°59'0 0.6
2019-Sep-09 21:29N 20°29' W 086°59'0 0.0
2019-Sep-09 20:59N 20°29' W 086°59'0 0.0
2019-Sep-09 20:29N 20°29' W 086°59'0 0.0
2019-Sep-09 19:59N 20°29' W 086°59'0 0.0
2019-Sep-09 19:29N 20°29' W 086°59'0 0.0
2019-Sep-09 18:59N 20°29' W 086°59'0 0.0
2019-Sep-09 18:29N 20°29' W 086°59'0 0.0
2019-Sep-09 17:59N 20°29' W 086°59'0 0.0
2019-Sep-09 17:29N 20°29' W 086°59'0 0.0
2019-Sep-09 16:59N 20°29' W 086°59'0 0.0
2019-Sep-09 16:29N 20°29' W 086°59'0 0.0
2019-Sep-09 15:59N 20°29' W 086°59'0 0.0
2019-Sep-09 15:29N 20°29' W 086°59'0 0.0
2019-Sep-09 14:59N 20°29' W 086°59'0 0.0
2019-Sep-09 14:29N 20°29' W 086°59'0 0.0
2019-Sep-09 13:59N 20°29' W 086°59'0 0.0
2019-Sep-09 13:29N 20°29' W 086°59'0 0.0
2019-Sep-09 12:59N 20°29' W 086°59'0 0.0
2019-Sep-09 12:29N 20°29' W 086°59'0 0.0
2019-Sep-09 12:00N 20°29' W 086°59'1 2.6
2019-Sep-09 11:31N 20°30' W 086°59'4 7.2
2019-Sep-09 11:00N 20°28' W 087°02'9710.7
2019-Sep-09 02:00N 18°54' W 087°24'98 5.8 090 / 201014.2 29.224.630.0
2019-Sep-08 09:00N 20°24' W 086°42'8421.0 090 / 71012.910.8 28.424.329.0
2019-Sep-08 05:00N 21°48' W 086°48'47520.7 080 / 21014.4 28.524.631.0
2019-Sep-07 06:00N 27°48' W 092°30'4418.0 210 / 51015.810.8 28.524.129.0
2019-Sep-07 03:31N 28°20' W 093°05'019.2
2019-Sep-07 03:30N 28°20' W 093°05'1018.6
2019-Sep-07 02:59N 28°26' W 093°14'918.9
2019-Sep-07 02:30N 28°31' W 093°22'2 3.7
2019-Sep-07 02:00N 28°30' W 093°24'10218.8 220 / 41015.1 29.023.729.0
2019-Sep-07 01:57N 28°37' W 093°32'917.8
2019-Sep-07 01:27N 28°42' W 093°40'818.0
2019-Sep-07 01:00N 28°47' W 093°48'918.4
2019-Sep-07 00:30N 28°52' W 093°56'918.5
2019-Sep-07 00:00N 28°58' W 094°05'  

Dump ship's entire track history